Location: Ceske Budejovice
(48.9830°N, 14.4670°E)
Time: 08:00:00
(UTC+01:00)

ISS - Visible Passes

Search period start: 11 March 2026 00:00
Search period end: 21 March 2026 00:00
Orbit: 416 x 426 km, 51.6° (Epoch: 10 March)

Date Brightness Start Highest point End Pass type
(mag) Time Alt. Az. Time Alt. Az. Time Alt. Az.
11 Mar -2.1 19:44:36 10° SSW 19:46:25 22° S 19:46:25 22° S visible
12 Mar -2.1 18:58:11 10° S 19:00:38 19° SE 19:01:55 16° ESE visible
12 Mar -1.5 20:33:42 10° WSW 20:34:56 21° WSW 20:34:56 21° WSW visible
13 Mar -3.7 19:46:41 10° SW 19:50:02 59° SSE 19:50:16 57° SE visible
14 Mar -3.2 18:59:47 10° SW 19:03:00 41° SSE 19:05:27 16° E visible
14 Mar -2.0 20:36:24 10° W 20:38:26 32° W 20:38:26 32° W visible
15 Mar -3.7 19:49:13 10° WSW 19:52:38 77° NNW 19:53:29 47° ENE visible
15 Mar -0.3 21:26:21 10° WNW 21:26:29 11° WNW 21:26:29 11° WNW visible
16 Mar -3.8 19:02:04 10° WSW 19:05:29 83° SSE 19:08:25 13° ENE visible
16 Mar -2.1 20:39:08 10° W 20:41:25 35° WNW 20:41:25 35° WNW visible
17 Mar -3.2 19:51:54 10° W 19:55:15 55° N 19:56:16 37° NE visible
17 Mar -0.4 21:28:58 10° WNW 21:29:15 12° WNW 21:29:15 12° WNW visible
18 Mar -3.4 19:04:38 10° W 19:08:01 63° NNW 19:11:03 12° ENE visible
18 Mar -2.2 20:41:46 10° WNW 20:44:02 36° NW 20:44:02 36° NW visible
19 Mar -3.2 19:54:31 10° WNW 19:57:52 52° N 19:58:46 38° NE visible
19 Mar -0.4 21:31:26 10° WNW 21:31:45 12° WNW 21:31:45 12° WNW visible
20 Mar -3.2 19:07:14 10° W 19:10:35 52° N 19:13:28 13° ENE visible
20 Mar -2.3 20:44:13 10° WNW 20:46:27 38° WNW 20:46:27 38° WNW visible
